[[{"header":{"parameterUnit":"m.s-1","parameterCategory":1,"la1":30.2991,"la2":30.254,"lo1":-89.0895,"lo2":-89.0444,"dy":0.0017,"dx":0.0017,"nx":28,"ny":28,"refTime":"2024-12-20T03:00:00:Z","depth":0,"parameterNumber":2,"parameterNumberName":"U-component_of_WINDS"},"data":[0,0,0,0,0,0,0,0,0,0,0,0,0,0,0,0,0,0,0,0,0,0,0,0,0,0,0,0,0,0,0,0,0,0,0,0,0,0,0,0,0,0,0,0,0,0,0,0,0,0,0,0,0,0,0,0,0,0,1.6992,1.6992,0,1.6994,1.6994,1.6994,1.6974,1.6973,1.6973,1.6972,1.6973,1.6973,1.6974,0,0,0,0,0,0,0,0,0,0,0,0,0,1.6971,1.6971,1.6992,1.6992,1.6992,1.6994,1.6994,1.6994,1.6974,1.6973,1.6972,1.6972,1.6973,1.6973,1.6974,0,0,0,0,0,0,0,0,0,0,0,0,0,1.6977,1.6972,1.6992,1.6982,1.6982,1.6994,1.6994,1.6995,1.6974,1.6973,1.6972,1.6971,1.6973,1.6973,1.6974,1.6996,0,0,1.6977,1.6977,0,0,0,0,0,0,0,0,1.6977,1.6978,1.6984,1.6983,1.6982,1.6983,1.6987,1.6995,1.6974,1.6977,1.6972,1.6971,1.6977,1.6977,1.6979,1.6996,1.6996,1.6977,1.6977,1.6978,1.6978,0,0,0,0,0,0,0,1.6977,1.6978,1.6993,1.6984,1.6983,1.6978,1.6978,1.6989,1.6982,1.6977,1.6975,1.6976,1.6976,1.6979,1.6979,1.6996,1.6977,1.6977,1.6978,1.6978,1.7034,1.7035,0,0,0,0,0,0,1.6978,1.6978,1.6993,1.6993,1.6977,1.6979,1.6979,1.6984,1.6981,1.698,1.6976,1.6975,1.6978,1.6978,1.6979,1.7006,1.6978,1.6978,1.6979,1.7033,1.7034,1.7035,0,0,0,0,0,0,1.6977,1.6979,1.6993,1.6985,1.6987,1.698,1.6986,1.6984,1.6987,1.6981,1.698,1.698,1.6977,1.6978,1.6993,1.7006,1.6979,1.6979,1.7032,1.7033,1.7034,1.706,0,0,0,0,0,0,1.6977,1.6979,1.6987,1.6985,1.6987,1.7006,1.6986,1.6985,1.6988,1.6986,1.6985,1.6983,1.6977,1.6992,1.6994,1.7007,1.698,1.703,1.7032,1.7034,1.7058,1.7062,1.7066,0,0,0,0,0,1.6976,1.6993,1.6988,1.699,1.6997,1.7007,1.7008,1.7,1.6989,1.6998,1.6995,1.6983,1.7004,1.6993,1.6995,1.7009,1.7029,1.7032,1.7034,1.7056,1.7061,1.7065,0,0,0,0,0,0,1.6996,1.6993,1.6986,1.7004,1.7006,1.7004,1.7014,1.7005,1.701,1.7008,1.6997,1.6997,1.7014,1.7013,1.7001,1.7031,1.7015,1.7018,1.7031,1.7036,1.704,1.704,1.6981,0,0,0,0,0,1.7002,1.7011,1.7008,1.7024,1.7025,1.702,1.7023,1.7018,1.7019,1.702,1.7017,1.7019,1.7027,1.7031,1.7037,1.7058,1.7058,1.7068,1.7072,1.7075,1.7078,1.709,1.7095,1.7042,1.7042,1.7042,0,0,1.7016,1.7015,1.7021,1.7028,1.7029,1.7038,1.702,1.703,1.7037,1.7021,1.7035,1.7034,1.7035,1.7054,1.7061,1.7053,1.7093,1.7078,1.7081,1.7081,1.7093,1.7098,1.7102,1.7044,1.7043,1.7043,0,0,1.7045,1.7045,1.7059,1.7061,1.7063,1.7059,1.7063,1.7062,1.7061,1.7075,1.7064,1.7072,1.7084,1.7086,1.7089,1.7122,1.7112,1.7124,1.7144,1.7157,1.7161,1.7164,1.7177,1.7181,1.7127,1.7127,1.7127,0,1.7061,1.7074,1.7067,1.7079,1.7082,1.707,1.7084,1.7086,1.709,1.7093,1.7084,1.7101,1.71,1.712,1.7128,1.713,1.7135,1.7124,1.7161,1.7164,1.7168,1.718,1.7184,1.7128,1.7128,1.7128,1.7128,0,1.7095,1.7105,1.7116,1.7121,1.7126,1.7139,1.7134,1.714,1.7135,1.7132,1.7148,1.7148,1.7155,1.7159,1.7153,1.7178,1.7173,1.7163,1.7146,1.7174,1.7185,1.719,1.713,1.713,1.7129,1.7129,0,0,1.7134,1.7137,1.7141,1.7144,1.7147,1.7155,1.7168,1.7175,1.7181,1.7185,1.7196,1.7208,1.72,1.7203,1.7197,1.7208,1.7235,1.7196,1.7196,1.7204,1.7264,1.7272,1.7278,1.7229,1.723,1.7231,1.7265,0,1.7163,1.7186,1.7181,1.7203,1.7213,1.7202,1.7214,1.7217,1.7216,1.7224,1.7223,1.7232,1.7219,1.7221,1.7231,1.723,1.7247,1.7227,1.724,1.7241,1.724,1.7283,1.7291,1.7322,1.7269,1.7269,1.727,0,1.7199,1.7206,1.723,1.7233,1.7237,1.7247,1.7255,1.7263,1.7267,1.7265,1.727,1.7263,1.7277,1.7261,1.7281,1.7267,1.7273,1.7273,1.7274,1.7275,1.7257,1.7285,1.7332,1.7337,1.7277,1.7276,1.7276,0,1.7227,1.7242,1.7258,1.7261,1.7265,1.7273,1.7275,1.7278,1.7284,1.729,1.7294,1.7302,1.7306,1.7313,1.7309,1.7298,1.733,1.7313,1.7329,1.7329,1.7336,1.7335,1.7384,1.7339,1.7339,1.7339,1.7339,0,1.726,1.7275,1.7271,1.7281,1.7298,1.7293,1.731,1.7311,1.7314,1.7325,1.7316,1.7326,1.732,1.733,1.7326,1.7344,1.7345,1.7345,1.7344,1.7346,1.7346,1.7349,1.7346,1.734,1.734,1.734,1.7339,0,1.7293,1.7291,1.7308,1.7311,1.7312,1.7325,1.7327,1.7337,1.7337,1.735,1.7353,1.7352,1.7363,1.736,1.7372,1.737,1.7392,1.7388,1.7391,1.739,1.7406,1.7405,1.7459,1.7466,1.7416,1.7416,1.7417,0,1.7313,1.7325,1.733,1.7337,1.734,1.735,1.7357,1.7352,1.7359,1.7366,1.7376,1.7387,1.7395,1.7414,1.7414,1.7424,1.742,1.7438,1.7421,1.7423,1.7421,1.742,1.7422,1.7441,1.7442,1.7442,1.7443,0,1.7351,1.735,1.7359,1.7369,1.7377,1.7385,1.7391,1.7397,1.7394,1.7402,1.7414,1.7421,1.7434,1.7445,1.7455,1.7457,1.745,1.7449,1.7453,1.7455,1.7456,1.7456,1.74,1.7447,1.7447,1.7446,1.7446,1.7446,1.7379,1.7389,1.7395,1.7406,1.7411,1.7418,1.7428,1.7429,1.7439,1.745,1.7447,1.7462,1.7467,1.7479,1.7483,1.7494,1.7487,1.7493,1.7495,1.7496,1.7499,1.7455,1.7496,1.7496,1.7496,1.7496,1.7496,0,1.7416,1.742,1.7431,1.7441,1.745,1.7444,1.7451,1.7459,1.7472,1.7478,1.7487,1.7502,1.7514,1.7516,1.7527,1.7536,1.7533,1.7539,1.7538,1.7539,1.7504,1.75,1.7541,1.7541,1.7541,1.7541,1.7541,1.7541,1.7437,1.7455,1.7455,1.7476,1.748,1.7494,1.7499,1.7506,1.7511,1.7528,1.7538,1.7539,1.7544,1.7556,1.7567,1.7567,1.7572,1.7579,1.7578,1.7546,1.7541,1.7537,1.7532,1.758,1.758,1.7612,1.7613,1.7613]},{"header":{"parameterUnit":"m.s-1","parameterCategory":1,"la1":30.2991,"la2":30.254,"lo1":-89.0895,"lo2":-89.0444,"dy":0.0017,"dx":0.0017,"nx":28,"ny":28,"refTime":"2024-12-20T03:00:00:Z","depth":0,"parameterNumber":3,"parameterNumberName":"V-component_of_WINDS"},"data":[0,0,0,0,0,0,0,0,0,0,0,0,0,0,0,0,0,0,0,0,0,0,0,0,0,0,0,0,0,0,0,0,0,0,0,0,0,0,0,0,0,0,0,0,0,0,0,0,0,0,0,0,0,0,0,0,0,0,-3.0827,-3.0829,0,-3.0968,-3.097,-3.0972,-3.0976,-3.0975,-3.0973,-3.0971,-3.1113,-3.1118,-3.1123,0,0,0,0,0,0,0,0,0,0,0,0,0,-3.056,-3.0564,-3.0827,-3.0829,-3.0831,-3.0968,-3.097,-3.0972,-3.0977,-3.0975,-3.0973,-3.0971,-3.1111,-3.1117,-3.1124,0,0,0,0,0,0,0,0,0,0,0,0,0,-3.0686,-3.0566,-3.0827,-3.085,-3.0853,-3.0968,-3.097,-3.0973,-3.0977,-3.0975,-3.0972,-3.097,-3.1109,-3.1117,-3.1125,-3.1225,0,0,-3.1149,-3.1153,0,0,0,0,0,0,0,0,-3.0679,-3.0696,-3.0844,-3.0848,-3.0852,-3.0952,-3.0928,-3.1057,-3.0978,-3.093,-3.0971,-3.0968,-3.1061,-3.1073,-3.1105,-3.1232,-3.1238,-3.115,-3.1155,-3.1158,-3.1161,0,0,0,0,0,0,0,-3.067,-3.0689,-3.0883,-3.0847,-3.0851,-3.0852,-3.0867,-3.0952,-3.1008,-3.0934,-3.0935,-3.0951,-3.1063,-3.1097,-3.1108,-3.124,-3.115,-3.1157,-3.1162,-3.1165,-3.1459,-3.1462,0,0,0,0,0,0,-3.0657,-3.0682,-3.0878,-3.0887,-3.0757,-3.0859,-3.0876,-3.0923,-3.1007,-3.1018,-3.0953,-3.0951,-3.1085,-3.1099,-3.1113,-3.1239,-3.1158,-3.1166,-3.117,-3.1456,-3.1459,-3.1463,0,0,0,0,0,0,-3.0651,-3.0674,-3.0873,-3.0785,-3.081,-3.0866,-3.0919,-3.0927,-3.0961,-3.1022,-3.1032,-3.0979,-3.1083,-3.1102,-3.1198,-3.1243,-3.1169,-3.1177,-3.1452,-3.1457,-3.1461,-3.1488,0,0,0,0,0,0,-3.0643,-3.0672,-3.0711,-3.0786,-3.0815,-3.0956,-3.0922,-3.0931,-3.0976,-3.0974,-3.1048,-3.1058,-3.1083,-3.1186,-3.1206,-3.1253,-3.1183,-3.1448,-3.1454,-3.146,-3.1484,-3.1493,-3.1501,0,0,0,0,0,-3.0634,-3.0712,-3.0713,-3.0737,-3.0865,-3.0958,-3.0975,-3.1003,-3.0979,-3.1019,-3.1058,-3.1056,-3.1235,-3.1196,-3.1219,-3.1268,-3.1446,-3.1453,-3.1459,-3.148,-3.1491,-3.1501,0,0,0,0,0,0,-3.064,-3.0722,-3.0724,-3.0829,-3.0887,-3.0959,-3.101,-3.1014,-3.1079,-3.1074,-3.1105,-3.1122,-3.1218,-3.1253,-3.1208,-3.1371,-3.1338,-3.1349,-3.1345,-3.1357,-3.1365,-3.1355,-3.119,0,0,0,0,0,-3.0654,-3.0723,-3.0791,-3.0877,-3.0906,-3.0953,-3.0995,-3.1012,-3.1072,-3.1096,-3.1142,-3.12,-3.127,-3.1315,-3.1382,-3.1488,-3.1505,-3.1534,-3.1543,-3.155,-3.1559,-3.162,-3.1634,-3.1485,-3.1485,-3.1484,0,0,-3.0683,-3.0736,-3.0778,-3.088,-3.0926,-3.0998,-3.0973,-3.1049,-3.1102,-3.1107,-3.1202,-3.1238,-3.1304,-3.1407,-3.1454,-3.1438,-3.1604,-3.1558,-3.1563,-3.157,-3.1628,-3.1642,-3.1655,-3.1489,-3.1488,-3.1488,0,0,-3.0772,-3.0819,-3.0897,-3.0945,-3.1016,-3.1047,-3.1066,-3.1138,-3.1163,-3.1258,-3.1264,-3.1327,-3.1446,-3.1494,-3.1534,-3.1643,-3.1644,-3.1664,-3.171,-3.1769,-3.1781,-3.1791,-3.1832,-3.1846,-3.1674,-3.1674,-3.1674,0,-3.0798,-3.0907,-3.0936,-3.1013,-3.1058,-3.1067,-3.1146,-3.1191,-3.128,-3.1311,-3.1293,-3.1444,-3.1489,-3.1604,-3.1631,-3.1662,-3.1685,-3.1656,-3.1777,-3.1788,-3.1798,-3.1837,-3.1852,-3.1676,-3.1675,-3.1675,-3.1675,0,-3.0936,-3.1011,-3.1065,-3.1154,-3.1205,-3.1282,-3.1323,-3.1371,-3.1384,-3.1417,-3.1515,-3.157,-3.1649,-3.1678,-3.169,-3.1794,-3.1783,-3.177,-3.1737,-3.1814,-3.1851,-3.1866,-3.1679,-3.1678,-3.1677,-3.1677,0,0,-3.1033,-3.1138,-3.1157,-3.1198,-3.1279,-3.1337,-3.1415,-3.1494,-3.1536,-3.1597,-3.1664,-3.1765,-3.1755,-3.18,-3.1818,-3.1869,-3.1955,-3.1851,-3.1853,-3.1869,-3.2075,-3.2085,-3.2101,-3.1955,-3.1958,-3.196,-3.207,0,-3.1132,-3.1273,-3.1302,-3.1423,-3.1494,-3.1504,-3.1572,-3.1629,-3.1662,-3.1726,-3.1762,-3.1834,-3.1815,-3.1842,-3.1893,-3.1933,-3.1996,-3.1926,-3.2018,-3.2021,-3.2002,-3.2121,-3.2131,-3.2231,-3.2084,-3.2087,-3.2088,0,-3.1266,-3.1333,-3.1462,-3.1535,-3.1566,-3.1627,-3.1703,-3.1764,-3.1828,-3.1849,-3.1901,-3.1914,-3.1995,-3.1958,-3.2071,-3.2023,-3.2062,-3.2088,-3.2092,-3.2103,-3.206,-3.2135,-3.2264,-3.2279,-3.2111,-3.2109,-3.2108,0,-3.1326,-3.1447,-3.1541,-3.1576,-3.1662,-3.1705,-3.1743,-3.1806,-3.1852,-3.1918,-3.1949,-3.2023,-3.2064,-3.212,-3.2153,-3.2123,-3.2265,-3.2229,-3.2284,-3.2284,-3.2314,-3.2312,-3.2452,-3.2338,-3.2337,-3.2337,-3.2337,0,-3.1434,-3.1513,-3.1569,-3.1627,-3.1716,-3.1749,-3.1836,-3.1873,-3.1929,-3.1994,-3.2007,-3.2067,-3.2106,-3.2172,-3.2198,-3.2289,-3.2307,-3.2326,-3.2332,-3.2326,-3.2323,-3.2352,-3.2347,-3.2341,-3.234,-3.2339,-3.2339,0,-3.1515,-3.1556,-3.1659,-3.1734,-3.1755,-3.1817,-3.1881,-3.1937,-3.1971,-3.2053,-3.2074,-3.2127,-3.2206,-3.2244,-3.234,-3.2358,-3.2462,-3.2462,-3.244,-3.2443,-3.2496,-3.2491,-3.2661,-3.2685,-3.2553,-3.2554,-3.2555,0,-3.1582,-3.1644,-3.1725,-3.1771,-3.181,-3.1883,-3.1931,-3.1966,-3.2015,-3.2094,-3.2141,-3.2221,-3.2287,-3.2412,-3.2458,-3.2533,-3.2537,-3.2591,-3.2548,-3.254,-3.2539,-3.2536,-3.2543,-3.2599,-3.26,-3.2601,-3.2602,0,-3.1697,-3.1715,-3.1784,-3.1862,-3.1919,-3.1981,-3.2042,-3.2078,-3.2123,-3.2178,-3.2259,-3.2311,-3.2411,-3.249,-3.2569,-3.2607,-3.2613,-3.2615,-3.2632,-3.2627,-3.2612,-3.2623,-3.2463,-3.2611,-3.261,-3.261,-3.2609,-3.2609,-3.1775,-3.1831,-3.1898,-3.1975,-3.2025,-3.2082,-3.214,-3.2181,-3.225,-3.2336,-3.2352,-3.2439,-3.2503,-3.2609,-3.265,-3.2719,-3.2706,-3.273,-3.2737,-3.2743,-3.2747,-3.2601,-3.2733,-3.2733,-3.2732,-3.2732,-3.2732,0,-3.1892,-3.1936,-3.2007,-3.2093,-3.2154,-3.2155,-3.2223,-3.2274,-3.2351,-3.2411,-3.2476,-3.257,-3.2648,-3.2701,-3.2779,-3.2824,-3.2828,-3.2843,-3.2841,-3.285,-3.2752,-3.273,-3.2838,-3.2838,-3.2838,-3.2838,-3.2838,-3.2838,-3.196,-3.2055,-3.2081,-3.2202,-3.2245,-3.2331,-3.237,-3.2423,-3.2472,-3.2577,-3.2642,-3.2677,-3.2735,-3.2818,-3.2889,-3.2902,-3.2931,-3.2947,-3.296,-3.2868,-3.2857,-3.2846,-3.2826,-3.2952,-3.2953,-3.3053,-3.3054,-3.3055]}]]